Orbital Elements at Epoch 2459000.5 (2020-May-31.0) TDB
Reference: JPL 29 (heliocentric ecliptic J2000)
Element | Value | Uncertainty (1-sigma) | Units |
e | .05704490149437007 | 4.2719e-08 | |
a | 2.294297664752694 | 8.6892e-09 | au |
q | 2.163419680468114 | 1.0095e-07 | au |
i | 3.974876270024793 | 3.633e-06 | deg |
node | 258.3110909154371 | 5.9224e-05 | deg |
peri | 239.9422184491025 | 6.9599e-05 | deg |
M | 330.4845885047965 | 3.6228e-05 | deg |
tp | 2459104.568528336356 (2020-Sep-12.06852834) | 0.00012775 | TDB |
period | 1269.325694719739 3.48 | 7.211e-06 1.974e-08 | d yr |
n | .2836151521217619 | 1.6112e-09 | deg/d |
Q | 2.425175649037275 | 9.1849e-09 | au |
|
| | Orbit Determination Parameters
Additional Information
|